This is the latest recevied weather packets stored in our database for station/object DL9BGG-13. If no packets are shown the sender has not sent any weather packets the latest 1 day(s).
| Time | Temp. | Humidity | Pressure | Rain* | Wind** | Luminosity | Snow |
|---|---|---|---|---|---|---|---|
| 1777973252 | 11.11° C | 75% | 1058.1 hPa | 0 mm | 3.13 m/s, 22° | - | - |
| 1777973186 | 11.11° C | 76% | 1058.1 hPa | 0 mm | 2.24 m/s, 22° | - | - |
| 1777973106 | 11.11° C | 76% | 1058.2 hPa | 0 mm | 1.79 m/s, 45° | - | - |
| 1777973034 | 11.11° C | 75% | 1058.2 hPa | 0 mm | 0.89 m/s, 45° | - | - |
| 1777972968 | 11.11° C | 75% | 1058.1 hPa | 0 mm | 4.92 m/s, 22° | - | - |
| 1777972902 | 11.11° C | 75% | 1058.2 hPa | 0 mm | 3.13 m/s, 45° | - | - |
| 1777972829 | 11.11° C | 75% | 1058 hPa | 0 mm | 2.24 m/s, 22° | - | - |
| 1777972765 | 11.11° C | 75% | 1058.1 hPa | 0 mm | 3.13 m/s, 22° | - | - |
| 1777972699 | 11.11° C | 76% | 1058.1 hPa | 0 mm | 1.79 m/s, 45° | - | - |
| 1777972635 | 11.11° C | 76% | 1058.2 hPa | 0 mm | 2.24 m/s, 292° | - | - |
| 1777972568 | 11.11° C | 76% | 1058.1 hPa | 0 mm | 0 m/s | - | - |
| 1777972503 | 11.11° C | 76% | 1058.2 hPa | 0 mm | 1.34 m/s, 45° | - | - |
| 1777972437 | 11.11° C | 76% | 1058.1 hPa | 0 mm | 2.24 m/s, 22° | - | - |
| 1777972371 | 10.56° C | 76% | 1058.1 hPa | 0 mm | 4.02 m/s, 45° | - | - |
| 1777972305 | 10.56° C | 76% | 1058.2 hPa | 0 mm | 2.68 m/s, 0° | - | - |
| 1777972224 | 10.56° C | 76% | 1058.1 hPa | 0 mm | 4.02 m/s, 22° | - | - |
| 1777972150 | 10.56° C | 76% | 1058.1 hPa | 0 mm | 1.34 m/s, 22° | - | - |
| 1777972070 | 10.56° C | 76% | 1058.1 hPa | 0 mm | 0.89 m/s, 45° | - | - |
| 1777972006 | 10.56° C | 75% | 1058.3 hPa | 0 mm | 0.45 m/s, 67° | - | - |
| 1777971940 | 10.56° C | 76% | 1058.2 hPa | 0 mm | 2.24 m/s, 45° | - | - |
| 1777971873 | 10.56° C | 76% | 1058.2 hPa | 0 mm | 2.68 m/s, 22° | - | - |
| 1777971719 | 10.56° C | 76% | 1058.2 hPa | 0 mm | 3.13 m/s, 22° | - | - |
| 1777971654 | 10.56° C | 76% | 1058.1 hPa | 0 mm | 3.13 m/s, 22° | - | - |
| 1777971490 | 10.56° C | 75% | 1058 hPa | 0 mm | 3.13 m/s, 67° | - | - |
| 1777971425 | 10.56° C | 75% | 1058.1 hPa | 0 mm | 1.79 m/s, 45° | - | - |
* Rain latest hour (hover to see other rain measurements)
** Current wind speed in m/s (hover to see current wind gust speed)